Weather in Zgierz

Poland     51°51′21″N   19°24′19″E
temp.,
°C
wind,
m/s
gust,
m/s
humid.,
%
clouds,
%
prec.,
mm/h
press.,
hPa
HPBL,
m
19 september, sun
sun1923:00+9nnw51088100 0.3 1014770
02:00+8nnw5986100 0.3 1014756
05:00+8nnw51082100 0.0 1014726
08:00+8nnw5977100 0.0 1015695
11:00+10n586695 0.0 1015707
14:00+13nnw5659100 0.0 10151287
17:00+12n3766100 0.0 1015940
20:00+11nne477089 0.0 1016712
20 september, mon
mon2023:00+8nne367552 0.0 1017374
02:00+8n37778 0.0 1018505
05:00+7n3677100 0.0 1018435
08:00+8n48766 0.0 1019704
11:00+11n476152 0.0 10201043
14:00+12nnw6857100 0.0 10191373
17:00+13n575299 0.0 10191283
20:00+9nne47695 0.0 1022355
21 september, tue
tue2123:00+7n25733 0.0 1023192
02:00+7nw26775 0.0 1024186
05:00+5n24785 0.0 1025130
08:00+7nnw237067 0.0 1026158
11:00+11nw33555 0.0 10261104
14:00+13nw4548100 0.0 10251559
17:00+13nw5651100 0.0 10251551
20:00+11wnw4756100 0.0 1025559
22 september, wed
wed2223:00+11nw3659100 0.0 1025465
02:00+10nw3761100 0.0 1025455
05:00+9w3577100 0.1 1024307
08:00+10w3571100 0.2 1024412
11:00+11nw3571100 0.0 1024594
14:00+11wnw347679 0.0 1023530
17:00+13w247080 0.0 1022821
20:00+11wsw2583100 0.1 1021203
23 september, thu
thu2323:00+11w3883100 0.3 1020311
02:00+10w4995100 0.4 1018342
05:00+10wsw51289100 0.0 1016456
08:00+11wsw61381100 0.0 1014469
11:00+13wsw71472100 0.0 1011675
14:00+13wsw81483100 1.6 10091144
17:00+12w71388100 1.4 10081111
20:00+11w51285100 1.8 1008710